Temp
37 38 37 37 39 39 40 40 39 44 45 46 46 46 46 47 47 47 48 49 49 50 51 52 53 54 54
33 34 35 37 37 35 37 40 38 42 43 44 44 45 45 45 45 46 46 44 45 47 49 49 50 51 52
31 35 35 36 32 35 35 35 38 40 42 42 42 43 43 42 43 43 44 44 45 45 47 47 48 50 51
31 31 32 33 32 30 30 32 32 37 37 38 40 41 41 42 41 41 41 42 43 44 44 46 47 47 49
29 30 28 29 28 30 28 30 30 32 31 32 33 33 34 37 38 39 39 41 42 43 44 45 45 46 47
29 27 28 28 29 28 27 24 22 32 29 29 32 30 32 33 37 39 40 41 41 42 42 42 44 45 46
28 28 27 28 28 27 26 25 24 29 28 25 30 28 31 34 37 37 38 40 40 40 40 41 42 43 44
32 32 32 32 31 30 28 26 27 28 29 22 27 25 29 30 35 37 38 39 40 40 40 40 41 42 43
36 36 36 36 34 29 24 22 21 24 28 24 24 24 26 26 30 35 37 38 40 39 39 40 40 40 40
29 30 31 31 34 30 25 21 20 20 27 23 23 24 22 27 27 29 31 35 37 38 39 39 39 37 34
26 27 28 28 28 28 27 24 21 21 27 27 24 24 23 23 26 27 29 29 30 31 34 35 36 36 33
25 25 24 24 25 26 27 26 27 25 27 26 24 24 24 23 22 25 26 28 29 28 29 32 36 37 38
23 23 24 25 25 25 26 27 27 27 28 28 27 26 25 23 21 22 23 26 29 30 31 32 32 33 32
23 24 25 24 24 25 23 24 23 25 29 30 28 27 23 22 22 21 24 24 29 30 32 33 34 34 35
23 22 23 23 23 24 23 24 22 23 25 28 29 28 25 22 21 24 25 28 30 32 32 32 34 34 36
22 22 21 22 21 24 24 23 23 24 25 26 26 24 24 26 29 26 29 29 30 32 33 32 31 34 36
21 21 21 21 22 21 22 24 23 25 25 25 24 23 20 20 25 32 29 31 31 32 32 32 32 33 36
MSLP
1008.24 1007.59 1007.02 1006.60 1006.04 1005.70 1005.41 1005.09 1004.72 1003.78 1002.77 1001.82 1001.07 1000.32 999.65 999.04 998.51 998.00 997.40 996.86 996.34 995.78 995.20 994.67 994.12 993.76 993.56
1007.69 1007.12 1006.53 1005.63 1005.03 1004.79 1004.51 1003.90 1003.45 1002.63 1001.72 1000.80 1000.07 999.23 998.54 997.94 997.27 996.59 996.08 996.15 995.70 995.01 994.36 993.94 993.46 993.10 992.62
1007.29 1006.42 1005.42 1004.91 1004.76 1003.99 1003.40 1002.62 1002.05 1001.23 1000.56 999.85 999.23 998.45 997.69 997.09 996.22 995.74 995.12 994.72 994.24 993.70 993.04 992.78 992.37 991.92 991.42
1006.75 1006.00 1005.13 1004.64 1004.15 1003.36 1002.14 1001.82 1000.76 1000.33 1000.02 999.28 998.35 997.55 996.73 996.07 995.44 994.87 994.30 993.77 993.16 992.62 992.10 991.51 991.04 990.79 990.31
1006.08 1005.05 1004.55 1004.00 1003.49 1002.75 1001.81 1000.47 1000.08 999.97 998.71 998.01 997.39 996.67 996.04 995.38 994.56 993.79 993.23 992.48 991.78 991.11 990.74 990.34 989.94 989.48 989.19
1005.23 1004.81 1004.16 1003.58 1002.81 1002.00 1001.08 1000.39 998.54 998.71 997.85 996.60 996.67 995.31 994.85 994.13 993.34 992.49 991.60 990.86 990.33 989.82 989.52 989.20 988.68 988.22 987.96
1005.15 1004.55 1003.60 1002.95 1002.13 1001.39 1000.61 999.89 998.72 997.52 997.35 995.68 995.26 994.36 993.63 992.82 991.96 991.23 990.37 989.54 988.85 988.51 988.15 987.75 987.38 987.10 986.85
1004.69 1003.78 1003.02 1002.17 1001.53 1000.65 999.89 999.07 998.00 996.91 996.55 995.21 994.08 993.32 992.56 991.65 990.77 989.85 988.91 988.22 987.42 986.80 986.34 985.97 985.73 985.56 985.41
1003.90 1003.16 1002.46 1001.58 1000.90 1000.07 999.31 998.61 997.21 996.00 995.36 994.75 993.17 992.35 991.61 990.20 989.34 988.43 987.73 986.89 985.95 985.61 984.93 984.40 984.27 984.15 984.02
1003.31 1002.48 1001.86 1001.04 1000.23 999.79 999.07 998.08 996.95 995.25 994.21 993.97 992.52 991.88 990.04 988.72 988.04 987.55 986.78 985.88 985.02 984.11 983.31 982.88 982.68 982.76 982.85
1002.93 1001.98 1001.12 1000.35 999.65 999.02 998.46 997.65 996.41 995.05 993.61 993.08 991.79 990.92 990.25 988.38 986.80 986.45 985.85 984.73 983.89 982.93 982.05 981.41 981.03 981.08 981.14
1002.63 1001.55 1000.70 999.88 999.05 998.27 997.44 996.60 995.73 994.62 993.19 992.50 991.36 990.42 989.10 987.80 986.74 985.39 984.76 983.74 982.70 981.51 980.60 979.73 979.25 979.09 979.10
1002.35 1001.40 1000.53 999.55 998.54 997.49 996.50 995.51 994.48 993.41 992.33 991.38 990.60 989.60 988.76 987.79 986.81 985.53 984.37 982.23 981.57 980.31 979.34 978.35 977.61 977.33 977.44
1002.16 1001.11 1000.10 999.03 998.03 997.13 996.02 994.82 993.76 992.13 991.14 990.47 989.71 988.89 988.15 987.44 986.76 985.38 984.13 983.26 980.92 979.84 978.66 977.68 976.84 976.24 975.88
1001.94 1000.88 999.84 998.80 997.68 996.74 995.69 994.48 993.54 992.04 990.65 989.71 988.97 988.35 987.70 987.19 986.26 985.03 983.65 982.18 980.91 979.69 978.58 977.64 976.76 975.95 975.01
1001.74 1000.83 999.79 998.68 997.57 996.30 995.41 994.37 993.16 991.93 990.93 990.01 989.10 988.29 987.54 986.42 985.86 984.78 983.29 982.30 981.13 979.88 978.92 978.05 976.92 975.69 974.44
1001.57 1000.48 999.60 998.57 997.39 996.26 995.22 994.20 993.07 992.01 991.20 990.39 989.60 988.97 988.26 987.41 985.95 984.92 983.92 982.62 981.54 980.46 979.68 978.80 978.04 976.91 975.04
Wind_Speed
13 13 14 13 12 11 11 10 12 28 32 35 36 35 35 35 36 37 37 36 36 35 36 36 36 35 36
16 13 15 16 13 11 9 11 12 21 32 32 32 35 35 36 36 34 33 31 34 36 35 35 34 34 34
15 13 15 11 8 12 12 13 12 24 28 29 31 33 32 33 32 31 33 34 34 34 33 33 33 35 33
13 13 11 11 9 12 14 12 13 12 17 23 29 29 31 32 34 34 33 32 33 32 32 33 33 33 35
14 14 8 12 13 12 14 15 10 11 13 12 11 11 14 24 27 31 31 32 32 32 32 32 34 32 33
9 13 14 13 13 13 13 14 15 10 9 14 11 14 13 12 27 32 33 34 32 33 33 33 34 34 31
15 14 16 15 13 15 16 14 14 14 13 17 12 13 12 14 30 33 34 34 34 33 33 33 34 33 33
14 15 14 16 17 15 16 15 13 13 11 15 13 14 13 13 30 33 34 33 33 32 31 31 31 32 32
24 26 29 27 24 13 10 12 14 14 12 12 13 13 13 15 14 30 30 30 30 30 32 31 29 28 22
13 16 18 17 25 14 11 12 13 14 12 10 12 11 9 10 9 9 11 24 30 32 32 30 29 13 10
12 12 12 12 11 11 12 11 12 13 16 13 10 11 9 10 9 9 11 12 12 16 26 28 28 24 12
12 11 12 11 11 12 15 14 12 16 18 16 11 12 12 12 14 9 11 12 11 12 11 17 24 25 28
11 12 11 12 14 13 14 15 15 15 13 15 11 12 10 11 10 12 13 10 11 9 9 9 8 6 7
11 12 12 11 11 10 11 12 11 12 12 10 12 10 8 7 8 12 11 8 10 11 9 7 5 5 7
11 12 12 12 11 11 10 11 10 11 10 10 11 10 6 8 6 9 11 10 8 9 6 6 5 6 6
11 11 11 11 12 11 10 10 10 10 9 9 10 8 4 5 9 9 6 6 9 8 7 5 10 11 8
11 11 11 11 15 11 11 9 10 8 8 8 8 4 5 5 5 12 10 8 8 9 7 7 8 12 12
Wind_Direction
292 298 294 289 285 279 277 278 273 283 289 292 293 295 293 290 290 287 283 281 279 282 280 279 278 276 273
294 298 287 288 284 300 281 280 278 280 288 290 295 295 293 290 287 284 284 285 280 278 274 275 275 271 271
289 291 288 297 304 290 294 290 284 284 289 289 293 293 293 289 286 288 294 290 285 283 278 274 274 273 271
284 292 294 307 299 303 300 294 289 289 291 283 287 289 292 294 292 289 289 285 280 276 275 276 273 268 267
294 288 306 305 305 302 291 291 297 293 289 285 281 281 280 283 281 283 282 279 273 269 275 275 270 270 268
311 302 302 302 295 289 292 317 305 285 278 291 284 282 279 274 278 282 283 284 278 276 276 273 270 268 264
307 298 299 295 298 306 297 294 291 294 293 291 288 281 278 276 282 283 282 281 278 277 276 273 270 265 262
294 298 295 303 301 301 300 293 286 287 286 285 289 283 285 278 281 282 282 282 280 279 272 266 260 260 260
310 311 308 309 308 305 300 301 296 293 293 286 285 285 285 279 275 277 280 278 279 281 277 276 273 263 256
317 310 307 299 305 302 295 290 291 294 290 290 290 291 285 273 269 273 271 274 278 282 280 272 265 257 244
308 305 305 303 302 298 290 286 289 284 286 296 294 291 279 294 290 288 283 276 277 277 274 269 262 248 233
307 308 310 305 302 299 294 288 279 279 287 285 281 288 291 291 296 301 292 280 276 270 263 260 258 249 239
310 307 305 301 300 297 295 290 286 282 281 284 280 288 284 288 286 295 302 306 293 278 280 270 260 222 220
307 304 305 306 305 304 302 304 300 304 300 290 297 294 297 274 276 284 290 297 305 302 302 296 292 267 228
310 309 309 309 308 310 302 306 302 307 315 319 314 313 279 256 289 284 297 302 305 316 318 322 327 326 312
309 307 306 310 309 311 310 309 310 314 319 323 325 335 325 286 241 303 326 323 329 336 347 355 10 359 339
305 303 308 304 315 312 315 317 317 320 325 321 329 332 333 335 294 333 354 350 346 1 356 5 6 12 17